Location: *
(58.7167°N, 26.1833°E)
Time: 15:18:44
(UTC+00:00)

NOSS 3-4 (A) - Pass Details

Date: 25 August 2019
Orbit: 910 x 1303 km, 63.4° (Epoch: 21 September)

Event Time Altitude Azimuth Distance (km) Brightness Sun altitude
Rises 19:14:50 0° 273° (W) 3,624 7.3 -11.5°
Reaches altitude 10° 19:17:21 10° 278° (W) 2,717 6.7 -11.7°
Maximum altitude 19:23:39 59° 358° (N) 1,186 4.2 -12.3°
Drops below altitude 10° 19:30:34 10° 77° (ENE) 2,977 5.8 -12.9°
Sets 19:33:27 0° 82° (E) 3,997 6.4 -13.1°
